Date String (YYYY-MM-DD hh:mm:ss) UTC,Instrument flags,Ambient pressure (hPa),Sample flow (lpm),Bypass flow (lpm),Sample temperature (°C),Ambient temperature (°C),ASC tube jacket temperature (°C),LED temperature (°C),Box temperature (°C),Sample RH (%),Span deviation,Mass concentration (μg/m³),Mass concentration (μg/m³),Mass concentration (μg/m³)
DateTimeUTC,F1_M11,P_M11,Q1_M11,Q2_M11,T1_M11,T2_M11,T3_M11,T4_M11,T5_M11,U1_M11,ZSPAN_M11,X0_M11,X2_M11,X1_M11
2022-08-16 21:00:00,,0832.1,5.00,0.00,31.1,28.8,00.0,39.5,32.2,33.2,0000.0,0009.54,0005.96,0005.19
2022-08-16 21:01:00,,0832.1,5.01,0.00,31.0,28.0,00.0,39.4,32.0,33.4,0000.0,0009.58,0005.99,0005.20
2022-08-16 21:02:00,,0832.1,4.98,0.00,30.9,27.5,00.0,39.4,31.9,33.8,0000.0,0009.65,0005.99,0005.20
2022-08-16 21:03:00,,0832.1,5.01,0.00,30.8,27.4,00.0,39.3,31.8,33.8,0000.0,0010.09,0006.02,0005.20
2022-08-16 21:04:00,,0832.1,4.99,0.00,30.7,27.5,00.0,39.3,31.8,33.9,0000.0,0010.22,0005.99,0005.20
2022-08-16 21:05:00,,0832.1,5.01,0.00,30.6,27.6,00.0,39.3,31.8,33.9,0000.0,0010.07,0005.97,0005.21
2022-08-16 21:06:00,,0832.1,4.99,0.00,30.6,27.8,00.0,39.2,31.8,34.2,0000.0,0010.29,0005.96,0005.22
2022-08-16 21:07:00,,0832.0,5.02,0.00,30.6,28.0,00.0,39.2,31.9,35.5,0000.0,0010.76,0005.98,0005.21
2022-08-16 21:08:00,,0832.1,4.97,0.00,30.7,28.1,00.0,39.2,32.0,34.8,0000.0,0010.88,0005.99,0005.20
2022-08-16 21:09:00,,0832.1,5.00,0.00,30.8,28.3,00.0,39.2,32.1,34.5,0000.0,0010.85,0005.95,0005.19
2022-08-16 21:10:00,,0832.1,5.00,0.00,30.9,28.4,00.0,39.2,32.1,33.9,0000.0,0010.71,0005.90,0005.18
2022-08-16 21:11:00,,0832.1,5.00,0.00,30.9,28.5,00.0,39.2,32.1,34.3,0000.0,0010.58,0005.84,0005.16
2022-08-16 21:12:00,,0832.1,5.01,0.00,31.0,28.6,00.0,39.2,32.1,34.0,0000.0,0010.55,0005.84,0005.15
2022-08-16 21:13:00,,0832.0,4.99,0.00,31.0,28.7,00.0,39.2,32.1,33.7,0000.0,0010.43,0005.82,0005.14
2022-08-16 21:14:00,,0832.0,5.00,0.00,31.0,28.8,00.0,39.3,32.1,33.5,0000.0,0010.49,0005.77,0005.13
2022-08-16 21:15:00,,0831.9,5.00,0.00,31.0,28.9,00.0,39.3,32.2,33.3,0000.0,0010.40,0005.76,0005.12
2022-08-16 21:16:00,,0831.9,5.00,0.00,31.0,28.9,00.0,39.3,32.2,33.1,0000.0,0010.66,0005.76,0005.12
2022-08-16 21:17:00,,0831.9,5.00,0.00,31.0,28.9,00.0,39.3,32.2,33.5,0000.0,0010.44,0005.75,0005.12
2022-08-16 21:18:00,,0832.0,5.00,0.00,30.9,28.4,00.0,39.3,32.0,33.1,0000.0,0010.07,0005.75,0005.12
2022-08-16 21:19:00,,0831.9,5.00,0.00,30.8,27.8,00.0,39.2,31.8,33.5,0000.0,0009.91,0005.75,0005.13
2022-08-16 21:20:00,,0831.9,5.00,0.00,30.7,27.5,00.0,39.2,31.7,34.1,0000.0,0009.91,0005.76,0005.13
2022-08-16 21:21:00,,0831.9,5.01,0.00,30.6,27.4,00.0,39.2,31.7,34.7,0000.0,0010.24,0005.81,0005.13
2022-08-16 21:22:00,,0831.9,4.99,0.00,30.5,27.5,00.0,39.1,31.7,34.1,0000.0,0010.33,0005.82,0005.14
2022-08-16 21:23:00,,0831.9,5.01,0.00,30.5,27.7,00.0,39.1,31.7,34.6,0000.0,0010.25,0005.78,0005.14
2022-08-16 21:24:00,,0831.9,4.99,0.00,30.4,27.8,00.0,39.1,31.7,34.6,0000.0,0010.19,0005.75,0005.14
2022-08-16 21:25:00,,0831.8,5.01,0.00,30.4,28.0,00.0,39.1,31.7,34.6,0000.0,0009.71,0005.77,0005.14
2022-08-16 21:26:00,,0831.8,5.00,0.00,30.4,28.1,00.0,39.1,31.7,34.3,0000.0,0009.65,0005.75,0005.14
2022-08-16 21:27:00,,0831.8,5.00,0.00,30.4,28.2,00.0,39.0,31.8,34.1,0000.0,0009.48,0005.76,0005.13
2022-08-16 21:28:00,,0831.8,5.00,0.00,30.4,28.4,00.0,39.0,31.8,34.2,0000.0,0009.40,0005.77,0005.13
2022-08-16 21:29:00,,0831.7,5.00,0.00,30.4,28.5,00.0,39.0,31.9,34.1,0000.0,0009.43,0005.80,0005.13
2022-08-16 21:30:00,,0831.7,5.00,0.00,30.4,28.6,00.0,39.0,31.9,34.1,0000.0,0009.47,0005.79,0005.13
2022-08-16 21:31:00,,0831.9,5.00,0.00,30.4,28.6,00.0,39.0,31.9,34.4,0000.0,0009.63,0005.79,0005.13
2022-08-16 21:32:00,,0831.8,5.01,0.00,30.4,28.7,00.0,39.0,32.0,34.7,0000.0,0009.41,0005.77,0005.14
2022-08-16 21:33:00,,0831.7,5.00,0.00,30.5,28.8,00.0,39.0,32.1,34.1,0000.0,0009.23,0005.77,0005.14
2022-08-16 21:34:00,,0831.7,5.01,0.00,30.6,28.9,00.0,39.0,32.1,34.1,0000.0,0009.39,0005.80,0005.15
2022-08-16 21:35:00,,0831.7,5.00,0.00,30.6,28.9,00.0,39.0,32.1,33.8,0000.0,0009.52,0005.85,0005.16
2022-08-16 21:36:00,,0831.7,5.00,0.00,30.7,28.8,00.0,39.1,32.1,33.8,0000.0,0009.56,0005.88,0005.17
2022-08-16 21:37:00,,0831.7,4.99,0.00,30.6,28.1,00.0,39.0,31.8,34.2,0000.0,0009.66,0005.91,0005.20
2022-08-16 21:38:00,,0831.7,5.00,0.00,30.5,27.5,00.0,39.0,31.7,34.5,0000.0,0009.74,0005.94,0005.22
2022-08-16 21:39:00,,0831.7,5.00,0.00,30.4,27.3,00.0,38.9,31.5,34.5,0000.0,0009.80,0005.96,0005.24
2022-08-16 21:40:00,,0831.7,5.00,0.00,30.3,27.4,00.0,38.9,31.5,34.9,0000.0,0010.00,0005.99,0005.26
2022-08-16 21:41:00,,0831.7,4.99,0.00,30.3,27.5,00.0,38.9,31.6,34.7,0000.0,0009.95,0005.99,0005.27
2022-08-16 21:42:00,,0831.7,5.00,0.00,30.3,27.6,00.0,38.9,31.6,34.8,0000.0,0009.92,0006.03,0005.28
2022-08-16 21:43:00,,0831.7,5.00,0.00,30.4,27.8,00.0,38.9,31.7,34.7,0000.0,0010.26,0006.03,0005.29
2022-08-16 21:44:00,,0831.7,5.01,0.00,30.4,27.9,00.0,38.9,31.8,34.9,0000.0,0010.39,0006.01,0005.28
2022-08-16 21:45:00,,0831.7,5.00,0.00,30.5,28.1,00.0,38.9,31.8,34.6,0000.0,0010.29,0006.00,0005.29
2022-08-16 21:46:00,,0831.7,5.01,0.00,30.6,28.2,00.0,38.9,31.9,35.1,0000.0,0010.27,0006.00,0005.27
2022-08-16 21:47:00,,0831.7,4.99,0.00,30.8,28.4,00.0,38.9,32.0,35.1,0000.0,0010.45,0005.97,0005.25
2022-08-16 21:48:00,,0831.7,4.99,0.00,31.1,28.5,00.0,39.0,32.1,34.3,0000.0,0010.56,0005.92,0005.22
2022-08-16 21:49:00,,0831.7,5.00,0.00,31.3,28.6,00.0,39.0,32.2,32.8,0000.0,0010.44,0005.87,0005.18
2022-08-16 21:50:00,,0831.7,5.00,0.00,31.4,28.7,00.0,39.1,32.2,33.0,0000.0,0010.35,0005.83,0005.15
2022-08-16 21:51:00,,0831.7,5.00,0.00,31.4,28.7,00.0,39.1,32.2,33.1,0000.0,0010.11,0005.76,0005.13
2022-08-16 21:52:00,,0831.7,5.00,0.00,31.5,28.8,00.0,39.2,32.2,33.1,0000.0,0010.36,0005.73,0005.14
2022-08-16 21:53:00,,0831.7,5.00,0.00,31.5,28.9,00.0,39.3,32.2,33.3,0000.0,0010.66,0005.71,0005.15
2022-08-16 21:54:00,,0831.7,5.00,0.00,31.5,28.9,00.0,39.4,32.2,32.5,0000.0,0010.52,0005.73,0005.16
2022-08-16 21:55:00,,0831.7,5.00,0.00,31.4,28.6,00.0,39.4,32.1,32.4,0000.0,0010.97,0005.79,0005.19
2022-08-16 21:56:00,,0831.8,5.00,0.00,31.3,27.9,00.0,39.3,31.9,32.5,0000.0,0011.53,0005.84,0005.23
2022-08-16 21:57:00,,0831.7,5.01,0.00,31.2,27.5,00.0,39.3,31.8,33.0,0000.0,0011.57,0005.87,0005.27
2022-08-16 21:58:00,,0831.7,4.99,0.00,31.1,27.4,00.0,39.3,31.7,32.7,0000.0,0011.45,0005.89,0005.32
2022-08-16 21:59:00,,0831.7,5.01,0.00,31.0,27.5,00.0,39.3,31.7,32.9,0000.0,0011.49,0005.97,0005.39
